Location: Indian Valley
(38.5527°N, 119.4285°W)
Time: 06:33:31
(UTC+00:00)

Daily predictions for brighter satellites

Satellite Brightness Start Highest point End
(mag) Time Altitude Azimuth Time Altitude Azimuth Time Altitude Azimuth
Cosmos 2333 Rocket 3.5 12:13:27 33° NE 12:13:27 33° NE 12:16:38 10° NNE
Cosmos 2219 Rocket 3.3 12:17:16 39° NE 12:17:16 39° NE 12:20:58 10° NNE
COSMOS 2428 3.0 12:30:54 64° ESE 12:30:54 64° ESE 12:36:28 10° NNE
Cosmos 921 Rocket 4.0 12:43:58 43° E 12:43:58 43° E 12:47:44 10° NNE
Cosmos 2360 Rocket 4.4 12:49:00 13° N 12:49:00 13° N 12:49:36 10° N
COSMO-SKYMED 1 3.9 12:41:42 10° SE 12:45:42 38° ENE 12:47:20 27° NNE
SJ 16-02 2.3 12:52:18 40° SSE 12:52:18 40° SSE 12:55:07 10° SSE
IRIDIUM 104 4.5 12:45:55 10° S 12:51:05 72° E 12:56:18 10° N
CZ-2C R/B 3.2 12:59:14 21° S 12:59:49 21° SSE 13:02:53 10° ESE
IRIDIUM 114 4.2 12:55:00 10° S 13:00:12 88° E 13:05:27 10° N
CZ-4B R/B 3.5 13:00:11 10° NNE 13:03:41 48° E 13:07:15 10° S
USA 276 4.1 13:05:16 27° SE 13:05:16 27° SE 13:06:49 10° SE
Meteor 1-24 Rocket 3.6 13:07:13 60° W 13:07:16 60° W 13:12:50 10° S
CZ-4B R/B 3.3 13:05:24 10° SSE 13:06:46 23° SSE 13:06:46 23° SSE
IRIDIUM 103 4.1 13:04:10 10° S 13:09:21 76° W 13:14:36 10° N
ADEOS 3.5 13:05:27 10° N 13:10:27 58° WNW 13:10:27 58° WNW
Meteor 2-10 4.1 13:05:49 10° S 13:11:31 84° W 13:17:04 10° N
Okean 1-7 Rocket 4.4 13:09:27 10° N 13:13:54 51° E 13:18:16 10° SSE
Cosmos 1513 Rocket 4.5 13:08:23 10° S 13:14:44 88° E 13:21:01 10° N
Cosmos 1844 4.2 13:15:29 41° WSW 13:15:29 41° WSW 13:20:22 10° S
NOSS 0 Rocket 4.0 13:10:30 10° SSW 13:16:41 77° ESE 13:22:52 10° NNE
Lacrosse 5 rocket 3.7 13:15:34 12° N 13:16:48 13° NNE 13:18:38 10° ENE
Cosmos 540 Rocket 4.0 13:11:56 10° S 13:16:56 58° ESE 13:21:58 10° NNE
Cosmos 1689 Rocket 3.9 13:17:12 10° SE 13:19:48 30° ENE 13:21:07 20° NNE
BREEZE M DEB (TANK) 3.5 13:20:28 21° SE 13:20:34 21° SE 13:22:32 10° ENE
Cosmos 990 Rocket 3.9 13:18:25 24° NNW 13:21:37 87° ENE 13:26:45 10° SSE
Cosmos 1891 Rocket 4.3 13:16:40 10° S 13:22:53 77° W 13:29:02 10° N
MOS 1 Rocket 3.6 13:18:24 10° SSE 13:23:30 72° ENE 13:28:19 10° N
SAR-Lupe-4 4.3 13:21:45 10° SSE 13:25:14 52° ENE 13:28:05 15° N
Cosmos 1464 Rocket 3.8 13:20:14 10° S 13:26:22 80° W 13:32:31 10° N
H-2A R/B 2.8 13:23:24 10° NNE 13:27:06 72° ESE 13:30:48 10° S
IRIDIUM 106 4.4 13:22:39 10° SSW 13:27:42 50° W 13:32:47 10° N
Cosmos 1455 Rocket 2.9 13:26:15 10° SSW 13:30:34 62° W 13:34:54 10° N
Cosmos 1072 Rocket 4.4 13:24:44 10° SSW 13:30:51 67° W 13:37:07 10° N
Atlas Centaur 2 3.9 13:25:11 16° SW 13:31:15 42° SSE 13:39:08 10° E
Cosmos 1400 Rocket 4.4 13:28:39 10° SSE 13:32:25 38° E 13:36:13 10° NNE
SKYMED 2 3.5 13:29:22 10° S 13:33:38 59° W 13:35:54 26° NNW
SAR-Lupe-1 4.2 13:32:35 10° SSE 13:36:08 72° ENE 13:39:15 13° N
Cosmos 1844 Rocket 4.2 13:39:02 18° SW 13:39:02 18° SW 13:41:15 10° SSW
SL-4 R/B 3.8 13:34:52 10° SSW 13:38:05 29° SE 13:41:32 10° ENE
OAO 2 Rocket 3.6 13:37:56 28° WSW 13:40:18 57° S 13:45:08 10° E
SL-16 R/B 4.3 13:35:31 10° SSE 13:40:20 30° ESE 13:45:10 10° NE
Chandra Rocket (1) 3.7 13:39:13 14° SW 13:41:07 18° SSW 13:43:16 10° SE
Cosmos 1763 Rocket 3.8 13:38:47 18° SW 13:42:13 40° WNW 13:47:07 10° N
PSLV R/B 4.3 13:41:01 10° NNE 13:44:58 64° ESE 13:48:57 10° S
Cosmos 2278 Rocket 2.3 13:40:12 10° NNW 13:45:54 76° ENE 13:51:34 10° SSE
Cosmos 841 Rocket 3.3 13:42:23 10° SSW 13:47:30 77° WNW 13:52:40 10° NNE
GPS 2-04 Rocket1 4.0 13:47:27 23° WSW 13:49:04 31° SSW 13:52:45 10° SE
H-2A R/B 4.1 13:44:58 10° NNE 13:49:13 41° E 13:53:27 10° S
Cosmos 1898 Rocket 3.5 13:45:09 14° NNW 13:49:30 60° WSW 13:54:34 10° S
deb Chang Zheng 4 4.0 13:46:12 10° N 13:50:05 36° WNW 13:53:57 10° SW
SJ-7 4.3 13:45:58 10° N 13:50:09 85° WNW 13:54:15 10° SSW
Okean O Rocket 3.9 13:46:29 10° NE 13:50:12 27° E 13:53:54 10° SSE
ATLAS CENTAUR R/B 3.2 13:47:48 10° S 13:51:05 29° ESE 13:54:19 10° NE
Cosmos 2237 Rocket 2.1 13:47:34 10° SSW 13:53:12 71° WNW 13:58:54 10° NNE
Cosmos 2333 Rocket 3.4 13:55:31 20° WNW 13:55:45 20° NW 13:59:52 10° N
SL-8 R/B 4.3 13:52:55 20° NW 13:56:04 51° NNE 14:00:45 10° ESE
CZ-2C R/B 3.7 13:51:47 10° SE 13:56:42 44° ENE 14:01:42 10° N
Cosmos 1570 Rocket 3.9 13:52:06 10° SSW 13:57:19 77° WNW 14:02:34 10° NNE
YAOGAN 6 2.5 13:53:51 10° N 13:57:32 72° WNW 14:01:12 10° SSW
Cosmos 1092 Rocket 4.4 13:52:32 10° N 13:58:39 64° E 14:04:45 10° SSE
Cosmos 1953 2.5 13:55:51 10° SSW 13:59:41 45° W 14:03:31 10° N
Cosmos 2219 Rocket 3.3 13:59:04 20° WNW 13:59:49 20° NW 14:03:56 10° N
FALCON 9 DEB 3.5 13:58:52 27° W 14:00:12 42° NW 14:03:28 10° NE
Cosmos 2034 Rocket 4.1 13:57:05 10° SSW 14:03:19 58° W 14:09:37 10° N
Cosmos 1602 Rocket 3.8 14:01:29 10° N 14:05:57 73° E 14:10:23 10° SSE
USA 307 4.2 14:03:38 10° SSW 14:07:36 41° SE 14:11:35 10° ENE
PSLV R/B 4.3 14:04:34 10° S 14:08:27 42° W 14:12:23 10° NNW
Cosmos 1461 4.2 14:07:25 16° W 14:10:09 27° NW 14:14:11 10° N
ERS-2 3.2 14:07:10 10° SSW 14:10:14 25° W 14:12:15 16° NW
Cosmos 1908 3.3 14:07:40 10° SSW 14:11:21 50° W 14:15:04 10° N
COSMOS 2428 4.0 14:13:02 14° W 14:15:35 19° NW 14:19:34 10° N
GEOS 3 Rocket 4.1 14:11:00 10° SSE 14:16:04 45° WSW 14:21:15 10° NW
USA 308 3.9 14:12:11 10° SSW 14:16:16 49° SE 14:20:20 10° ENE
Nadezhda 4 Rocket 4.1 14:10:21 10° NNW 14:16:17 54° W 14:22:10 10° SSW
Cosmos 2208 Rocket 4.1 14:10:56 10° SSW 14:16:20 64° WNW 14:21:44 10° NNE
USA 305 3.7 14:13:04 10° SSW 14:17:11 54° SE 14:21:20 10° NE
MOS 1-B 4.3 14:12:45 10° NNE 14:18:34 87° WNW 14:24:20 10° SSW
Cosmos 1315 Rocket 4.2 14:16:00 10° SSE 14:19:42 42° E 14:23:24 10° NNE
Cosmos 1634 Rocket 4.1 14:14:02 10° S 14:20:12 86° E 14:26:24 10° N
COSMO-SKYMED 1 4.1 14:19:08 10° SW 14:21:59 17° W 14:24:33 11° NW
Cosmos 1814 Rocket 4.1 14:18:38 10° SW 14:23:35 48° WNW 14:28:33 10° N
Cosmos 1937 Rocket 4.0 14:20:15 10° NW 14:25:07 39° WSW 14:29:56 10° S
Cosmos 1980 4.2 14:20:54 10° SW 14:26:03 36° WNW 14:31:15 10° N
CENTAUR R/B 3.4 14:21:41 10° S 14:27:05 51° ESE 14:33:25 10° NE
USA 306 3.3 14:24:44 10° SW 14:28:57 69° SE 14:33:11 10° NE
Envisat 3.4 14:24:25 10° N 14:29:07 39° WNW 14:33:49 10° SW
SWAS 4.4 14:25:07 10° SW 14:29:19 60° WNW 14:33:33 10° NNE
Cosmos 372 Rocket 4.0 14:24:06 10° NNW 14:29:21 73° WSW 14:34:33 10° S
NOAA 6 4.2 14:26:20 10° N 14:31:23 53° WNW 14:36:24 10° SSW
USA 238 DEB 3.8 14:31:22 10° SSW 14:37:53 83° ESE 14:44:42 10° NE
USA 238 3.8 14:31:30 10° SSW 14:38:00 82° ESE 14:44:49 10° NE
CZ-2C R/B 2.1 14:35:14 10° WSW 14:39:06 44° S 14:42:42 10° E
BREEZE-M DEB (TANK) 2.5 14:36:35 10° WNW 14:43:30 69° SW 14:46:08 10° SE
CZ-3 Stage 3 2.6 14:43:29 10° SW 14:44:25 12° SSW 14:45:14 10° SSE
